When you browse on this site, cookies collect data to enhance your experience and personalize the content and advertising you see.
Visit our Privacy Policy to learn more. By continuing to use the site, you agree to this use of cookies and data.
  • In Czech Republic
  • List of Countries
  • For 7 days
  • Water Temperature
  • Satellite Maps
  • Weather Map
  • Weather Widgets
  • user-avatar
    Login

    Hourly Weather Thompson

    Today, 19 April, Friday

    Time Temperature Precipitation Wind Pressure Humidity
    00:00 +3°C° 0 mm 1 mps 737 mmHg 93%
    01:00 +3°C° 0 mm 1 mps 737 mmHg 94%
    02:00 +2°C° 0 mm 1 mps 736 mmHg 94%
    03:00 +2°C° 0 mm 1 mps 736 mmHg 95%
    04:00 +2°C° 0 mm 1 mps 735 mmHg 95%
    05:00 +2°C° 0 mm 1 mps 735 mmHg 95%
    06:00 +2°C° 0 mm 2 mps 734 mmHg 93%
    07:00 +4°C° 0 mm 2 mps 734 mmHg 91%
    08:00 +5°C° 0 mm 2 mps 733 mmHg 89%
    09:00 +5°C° 0.1 mm 3 mps 733 mmHg 87%
    10:00 +7°C° 0.1 mm 3 mps 732 mmHg 85%
    11:00 +9°C° 0.1 mm 3 mps 732 mmHg 84%
    12:00 +8°C° 0.7 mm 3 mps 731 mmHg 86%
    13:00 +7°C° 0.7 mm 3 mps 730 mmHg 89%
    14:00 +7°C° 0.7 mm 3 mps 730 mmHg 92%
    15:00 +5°C° 0.4 mm 3 mps 729 mmHg 92%
    16:00 +5°C° 0.4 mm 3 mps 729 mmHg 92%
    17:00 +5°C° 0.4 mm 3 mps 729 mmHg 93%
    18:00 +4°C° 0 mm 3 mps 729 mmHg 93%
    19:00 +5°C° 0 mm 2 mps 729 mmHg 94%
    20:00 +4°C° 0 mm 2 mps 729 mmHg 94%
    21:00 +4°C° 0 mm 2 mps 729 mmHg 94%
    22:00 +3°C° 0 mm 2 mps 730 mmHg 94%
    23:00 +2°C° 0 mm 2 mps 730 mmHg 93%

    Tomorrow, 20 April, Saturday

    Time Temperature Precipitation Wind Pressure Humidity
    00:00 +2°C° 0 mm 2 mps 730 mmHg 94%
    01:00 +1°C° 0 mm 2 mps 731 mmHg 95%
    02:00 +1°C° 0 mm 2 mps 731 mmHg 95%
    03:00 +1°C° 0 mm 2 mps 732 mmHg 95%
    04:00 +1°C° 0 mm 2 mps 733 mmHg 95%
    05:00 +1°C° 0 mm 2 mps 734 mmHg 95%
    06:00 0°C° 0 mm 3 mps 734 mmHg 92%
    07:00 0°C° 0 mm 3 mps 735 mmHg 89%
    08:00 0°C° 0 mm 3 mps 736 mmHg 87%
    09:00 +2°C° 0 mm 2 mps 736 mmHg 84%
    10:00 +2°C° 0 mm 2 mps 737 mmHg 82%
    11:00 +3°C° 0 mm 2 mps 737 mmHg 79%
    12:00 +3°C° 0 mm 2 mps 738 mmHg 78%
    13:00 +3°C° 0 mm 2 mps 738 mmHg 76%
    14:00 +3°C° 0 mm 2 mps 739 mmHg 75%
    15:00 +3°C° 0 mm 2 mps 739 mmHg 76%
    16:00 +2°C° 0 mm 2 mps 740 mmHg 77%
    17:00 +2°C° 0 mm 2 mps 740 mmHg 78%
    18:00 +1°C° 0 mm 2 mps 741 mmHg 80%
    19:00 +1°C° 0 mm 2 mps 741 mmHg 82%
    20:00 -1°C° 0 mm 2 mps 742 mmHg 84%
    21:00 -2°C° 0 mm 2 mps 742 mmHg 84%
    22:00 -2°C° 0 mm 2 mps 743 mmHg 85%
    23:00 -2°C° 0 mm 2 mps 743 mmHg 85%

    Day after tomorrow, 21 April, Sunday

    Time Temperature Precipitation Wind Pressure Humidity
    00:00 -3°C° 0 mm 2 mps 743 mmHg 87%
    01:00 -3°C° 0 mm 2 mps 743 mmHg 88%
    02:00 -3°C° 0 mm 2 mps 744 mmHg 89%
    03:00 -3°C° 0 mm 2 mps 744 mmHg 88%
    04:00 -3°C° 0 mm 2 mps 744 mmHg 87%
    05:00 -4°C° 0 mm 2 mps 745 mmHg 87%
    06:00 -3°C° 0.4 mm 2 mps 745 mmHg 86%
    07:00 -3°C° 0.4 mm 2 mps 745 mmHg 86%
    08:00 -3°C° 0.4 mm 2 mps 745 mmHg 86%
    09:00 -2°C° 0.5 mm 2 mps 745 mmHg 85%
    10:00 -1°C° 0.5 mm 2 mps 745 mmHg 85%
    11:00 -1°C° 0.5 mm 2 mps 746 mmHg 85%
    12:00 +1°C° 0.1 mm 2 mps 746 mmHg 81%
    13:00 +3°C° 0.1 mm 2 mps 746 mmHg 78%
    14:00 +4°C° 0.1 mm 2 mps 746 mmHg 75%
    15:00 +5°C° 0 mm 1 mps 746 mmHg 76%
    16:00 +5°C° 0 mm 1 mps 746 mmHg 77%
    17:00 +5°C° 0 mm 1 mps 746 mmHg 78%
    18:00 +4°C° 0 mm 1 mps 747 mmHg 82%
    19:00 +3°C° 0 mm 1 mps 747 mmHg 87%
    20:00 +2°C° 0 mm 1 mps 748 mmHg 91%
    21:00 +1°C° 0 mm 1 mps 748 mmHg 91%
    22:00 +1°C° 0 mm 1 mps 748 mmHg 91%
    23:00 +1°C° 0 mm 1 mps 748 mmHg 91%

    22 April, Monday

    Time Temperature Precipitation Wind Pressure Humidity
    00:00 +1°C° 0 mm 1 mps 748 mmHg 91%
    01:00 +1°C° 0 mm 1 mps 748 mmHg 91%
    02:00 +1°C° 0 mm 1 mps 749 mmHg 91%
    03:00 0°C° 0 mm 1 mps 749 mmHg 91%
    04:00 0°C° 0 mm 1 mps 749 mmHg 92%
    05:00 -1°C° 0 mm 0 mps 749 mmHg 92%
    06:00 +2°C° 0 mm 1 mps 749 mmHg 86%
    07:00 +4°C° 0 mm 1 mps 749 mmHg 80%
    08:00 +7°C° 0 mm 1 mps 749 mmHg 74%
    09:00 +7°C° 0 mm 2 mps 749 mmHg 70%
    10:00 +8°C° 0 mm 2 mps 749 mmHg 66%
    11:00 +10°C° 0 mm 2 mps 748 mmHg 63%
    12:00 +10°C° 0.1 mm 2 mps 748 mmHg 60%
    13:00 +12°C° 0.1 mm 2 mps 747 mmHg 58%
    14:00 +12°C° 0.1 mm 2 mps 747 mmHg 56%
    15:00 +12°C° 0 mm 2 mps 747 mmHg 59%
    16:00 +12°C° 0 mm 2 mps 746 mmHg 61%
    17:00 +10°C° 0 mm 2 mps 746 mmHg 64%
    18:00 +9°C° 0.1 mm 2 mps 746 mmHg 70%
    19:00 +7°C° 0.1 mm 2 mps 746 mmHg 75%
    20:00 +6°C° 0.1 mm 2 mps 745 mmHg 81%
    21:00 +5°C° 0.1 mm 2 mps 745 mmHg 81%
    22:00 +5°C° 0.1 mm 2 mps 745 mmHg 81%
    23:00 +4°C° 0.1 mm 3 mps 744 mmHg 82%

    23 April, Tuesday

    Time Temperature Precipitation Wind Pressure Humidity
    00:00 +3°C° 0 mm 3 mps 743 mmHg 82%
    01:00 +2°C° 0 mm 3 mps 743 mmHg 82%
    02:00 +2°C° 0 mm 3 mps 742 mmHg 83%
    03:00 +2°C° 0 mm 3 mps 742 mmHg 83%
    04:00 +2°C° 0 mm 3 mps 741 mmHg 83%
    05:00 +2°C° 0 mm 3 mps 740 mmHg 83%
    06:00 +4°C° 0 mm 3 mps 740 mmHg 77%
    07:00 +6°C° 0 mm 4 mps 739 mmHg 72%
    08:00 +8°C° 0 mm 4 mps 738 mmHg 66%
    09:00 +10°C° 0 mm 4 mps 738 mmHg 62%
    10:00 +12°C° 0 mm 5 mps 737 mmHg 58%
    11:00 +13°C° 0 mm 5 mps 736 mmHg 54%
    12:00 +13°C° 0 mm 5 mps 736 mmHg 54%
    13:00 +14°C° 0 mm 5 mps 735 mmHg 54%
    14:00 +14°C° 0 mm 5 mps 735 mmHg 54%
    15:00 +14°C° 0 mm 5 mps 734 mmHg 58%
    16:00 +13°C° 0 mm 4 mps 734 mmHg 63%
    17:00 +12°C° 0 mm 4 mps 733 mmHg 67%
    18:00 +11°C° 0 mm 4 mps 733 mmHg 71%
    19:00 +10°C° 0 mm 3 mps 733 mmHg 75%
    20:00 +9°C° 0 mm 3 mps 732 mmHg 80%
    21:00 +8°C° 0 mm 3 mps 732 mmHg 83%
    22:00 +8°C° 0 mm 2 mps 732 mmHg 87%
    23:00 +7°C° 0 mm 2 mps 732 mmHg 91%

    24 April, Wednesday

    Time Temperature Precipitation Wind Pressure Humidity
    00:00 +7°C° 0.1 mm 2 mps 732 mmHg 92%
    01:00 +7°C° 0.1 mm 2 mps 732 mmHg 92%
    02:00 +5°C° 0.1 mm 3 mps 732 mmHg 93%
    03:00 +6°C° 0 mm 2 mps 733 mmHg 93%
    04:00 +6°C° 0 mm 2 mps 733 mmHg 92%
    05:00 +5°C° 0 mm 2 mps 734 mmHg 92%
    06:00 +7°C° 0 mm 3 mps 734 mmHg 78%
    07:00 +7°C° 0 mm 4 mps 734 mmHg 64%
    08:00 +8°C° 0 mm 5 mps 735 mmHg 50%
    09:00 +9°C° 0 mm 5 mps 735 mmHg 45%
    10:00 +9°C° 0 mm 5 mps 735 mmHg 40%
    11:00 +10°C° 0 mm 5 mps 735 mmHg 35%
    12:00 +10°C° 0 mm 5 mps 735 mmHg 33%
    13:00 +10°C° 0 mm 5 mps 735 mmHg 32%
    14:00 +12°C° 0 mm 5 mps 735 mmHg 30%
    15:00 +11°C° 0 mm 4 mps 735 mmHg 30%
    16:00 +11°C° 0 mm 3 mps 735 mmHg 31%
    17:00 +11°C° 0 mm 3 mps 735 mmHg 32%
    18:00 +9°C° 0 mm 2 mps 736 mmHg 38%
    19:00 +7°C° 0 mm 2 mps 736 mmHg 43%
    20:00 +7°C° 0 mm 1 mps 736 mmHg 49%
    21:00 +6°C° 0 mm 1 mps 736 mmHg 51%
    22:00 +6°C° 0 mm 1 mps 735 mmHg 53%
    23:00 +4°C° 0 mm 2 mps 735 mmHg 55%
    Show more